K8SWR-13 Weather Reports


time (UTC)temp
C
wind
direction
speed
KPH
gust
KPH
rain 1hr
cm
rain 24hr
cm
rain mn
cm
humidity
%
barometer
mb
20260509043132 8 248 0.0 3.2 0.00 0.00 0.00 65 1004.7
20260509042632 8 225 0.0 3.2 0.00 0.00 0.00 60 1004.7
20260509042132 8 225 0.0 3.2 0.00 0.00 0.00 58 1005.1
20260509041632 8 225 0.0 3.2 0.00 0.00 0.00 60 1005.1
20260509041134 8 248 0.0 3.2 0.00 0.00 0.00 59 1005.1
20260509040632 8 225 0.0 3.2 0.00 0.00 0.00 59 1005.1
20260509040134 8 203 0.0 3.2 0.00 0.00 0.00 60 1005.1
20260509035633 8 225 0.0 3.2 0.00 0.00 0.00 61 1005.1
20260509035133 8 225 0.0 3.2 0.00 0.00 0.00 60 1005.1
20260509034632 8 225 0.0 3.2 0.00 0.00 0.00 60 1005.1
20260509034133 8 248 0.0 3.2 0.00 0.00 0.00 60 1005.1
20260509033632 8 248 1.6 3.2 0.00 0.00 0.00 60 1005.1
20260509033133 8 225 1.6 3.2 0.00 0.00 0.00 57 1005.1
20260509032632 9 203 0.0 3.2 0.00 0.00 0.00 56 1005.1
20260509032132 9 225 3.2 3.2 0.00 0.00 0.00 54 1005.1
20260509031632 9 203 0.0 3.2 0.00 0.00 0.00 53 1005.1
20260509031133 9 180 0.0 3.2 0.00 0.00 0.00 53 1005.1
20260509030632 9 270 0.0 3.2 0.00 0.00 0.00 51 1005.1
20260509030133 9 203 0.0 3.2 0.00 0.00 0.00 50 1005.4
20260509025633 10 203 1.6 3.2 0.00 0.00 0.00 50 1005.4
20260509025132 10 225 0.0 3.2 0.00 0.00 0.00 49 1005.4
20260509024632 10 203 1.6 3.2 0.00 0.00 0.00 49 1005.4
20260509024132 10 203 1.6 3.2 0.00 0.00 0.00 48 1005.4
20260509023633 10 203 3.2 3.2 0.00 0.00 0.00 47 1005.4
20260509023134 10 203 0.0 3.2 0.00 0.00 0.00 46 1005.4
20260509022633 10 203 1.6 3.2 0.00 0.00 0.00 48 1005.4
20260509022133 10 203 0.0 3.2 0.00 0.00 0.00 44 1005.4
20260509021635 10 225 0.0 3.2 0.00 0.00 0.00 45 1005.4
20260509021132 10 225 0.0 3.2 0.00 0.00 0.00 43 1005.4
20260509020634 10 203 0.0 3.2 0.00 0.00 0.00 43 1005.4
20260509020132 10 225 0.0 3.2 0.00 0.00 0.00 43 1005.4
20260509015633 10 203 0.0 0.0 0.00 0.00 0.00 43 1005.4
20260509015135 10 225 0.0 0.0 0.00 0.00 0.00 42 1005.4
20260509014632 10 203 0.0 0.0 0.00 0.00 0.00 41 1005.4
20260509014133 11 180 0.0 3.2 0.00 0.00 0.00 41 1005.4
20260509013632 11 203 0.0 3.2 0.00 0.00 0.00 39 1005.1
20260509013132 11 248 0.0 3.2 0.00 0.00 0.00 41 1005.1
20260509012632 11 225 0.0 3.2 0.00 0.00 0.00 42 1005.1
20260509012132 11 225 0.0 3.2 0.00 0.00 0.00 42 1005.1
20260509011633 11 225 0.0 3.2 0.00 0.00 0.00 40 1005.1
20260509011134 12 225 0.0 3.2 0.00 0.00 0.00 39 1005.1
20260509010633 12 225 0.0 3.2 0.00 0.00 0.00 40 1005.1
20260509010133 12 203 0.0 8.0 0.00 0.00 0.00 37 1005.1
20260509005633 12 203 0.0 8.0 0.00 0.00 0.00 37 1005.1
20260509005133 13 225 0.0 8.0 0.00 0.00 0.00 35 1005.1
20260509004632 13 225 0.0 8.0 0.00 0.00 0.00 33 1005.1
20260509004133 13 270 0.0 8.0 0.00 0.00 0.00 33 1005.1
20260509003632 13 293 0.0 8.0 0.00 0.00 0.00 35 1005.1
20260509003133 13 248 0.0 8.0 0.00 0.00 0.00 35 1005.1
20260509002634 14 45 0.0 8.0 0.00 0.00 0.00 37 1005.1
20260509002133 15 270 0.0 8.0 0.00 0.00 0.00 33 1005.1
20260509001632 15 248 0.0 8.0 0.00 0.00 0.00 32 1005.1
20260509001132 15 270 0.0 8.0 0.00 0.00 0.00 32 1005.1
20260509000632 15 315 3.2 8.0 0.00 0.00 0.00 30 1005.1
20260509000132 15 203 3.2 9.7 0.00 0.00 0.00 29 1004.7
20260508235633 15 248 0.0 9.7 0.00 0.00 0.00 30 1004.7
20260508234645 16 270 3.2 9.7 0.00 0.00 0.00 30 1004.7
20260508234132 16 180 4.8 9.7 0.00 0.00 0.00 31 1004.7
20260508233133 17 270 0.0 9.7 0.00 0.00 0.00 28 1004.7
20260508232134 18 45 1.6 9.7 0.00 0.00 0.00 26 1004.7
20260508231635 18 270 3.2 9.7 0.00 0.00 0.00 26 1004.7
20260508231133 18 270 1.6 9.7 0.00 0.00 0.00 27 1004.7
20260508230632 18 90 3.2 9.7 0.00 0.00 0.00 25 1004.7
20260508230132 18 270 3.2 9.7 0.00 0.00 0.00 28 1004.7
20260508225634 19 315 4.8 9.7 0.00 0.00 0.00 27 1004.7
20260508225133 20 270 4.8 11.3 0.00 0.00 0.00 27 1004.7
20260508224632 20 225 3.2 11.3 0.00 0.00 0.00 27 1004.7
20260508224133 19 90 3.2 12.9 0.00 0.00 0.00 27 1004.7
20260508223633 19 203 6.4 12.9 0.00 0.00 0.00 27 1004.7
20260508223133 20 315 3.2 12.9 0.00 0.00 0.00 29 1004.7
20260508222632 20 293 3.2 12.9 0.00 0.00 0.00 27 1004.7
20260508222134 20 315 3.2 12.9 0.00 0.00 0.00 29 1004.7
20260508221632 19 270 3.2 14.5 0.00 0.00 0.00 31 1004.7
20260508221133 20 293 3.2 14.5 0.00 0.00 0.00 32 1004.7
20260508220633 20 248 4.8 14.5 0.00 0.00 0.00 28 1004.7
20260508220132 18 293 6.4 14.5 0.00 0.00 0.00 29 1004.7
20260508215633 18 248 8.0 14.5 0.00 0.00 0.00 28 1004.7
20260508215133 19 203 11.3 14.5 0.00 0.00 0.00 29 1004.7
20260508214633 19 338 4.8 14.5 0.00 0.00 0.00 30 1004.7
20260508214134 19 248 6.4 16.1 0.00 0.00 0.00 28 1004.7
20260508213635 20 203 3.2 16.1 0.00 0.00 0.00 28 1004.7
20260508213132 19 270 6.4 16.1 0.00 0.00 0.00 30 1004.7
20260508212634 19 225 9.7 16.1 0.00 0.00 0.00 27 1004.7
20260508212132 19 180 3.2 17.7 0.00 0.00 0.00 33 1005.1
20260508211632 18 203 11.3 17.7 0.00 0.00 0.00 27 1005.1
20260508211135 20 270 3.2 17.7 0.00 0.00 0.00 30 1005.1
20260508210632 18 315 6.4 17.7 0.00 0.00 0.00 31 1005.1
20260508210132 20 315 3.2 17.7 0.00 0.00 0.00 27 1005.1
20260508205633 20 45 8.0 17.7 0.00 0.00 0.00 28 1005.1
20260508205133 19 23 3.2 17.7 0.00 0.00 0.00 31 1005.1
20260508204632 18 270 3.2 17.7 0.00 0.00 0.00 28 1005.4
20260508204132 19 203 14.5 17.7 0.00 0.00 0.00 28 1005.4
20260508203632 18 248 6.4 17.7 0.00 0.00 0.00 31 1005.4
20260508203132 19 203 9.7 17.7 0.00 0.00 0.00 31 1005.4
20260508202632 18 203 9.7 17.7 0.00 0.00 0.00 29 1005.4
20260508202134 18 270 3.2 17.7 0.00 0.00 0.00 31 1005.8
20260508201636 18 248 6.4 17.7 0.00 0.00 0.00 30 1005.8
20260508201133 18 248 6.4 17.7 0.00 0.00 0.00 29 1005.8
20260508200634 18 203 6.4 17.7 0.00 0.00 0.00 30 1005.8
20260508200132 18 225 11.3 17.7 0.00 0.00 0.00 31 1005.8
20260508195632 17 180 6.4 17.7 0.00 0.00 0.00 31 1005.8
20260508195133 18 270 3.2 17.7 0.00 0.00 0.00 31 1005.8
20260508194634 18 293 3.2 17.7 0.00 0.00 0.00 33 1006.1
20260508194132 18 225 11.3 17.7 0.00 0.00 0.00 31 1006.1
20260508193632 17 293 8.0 17.7 0.00 0.00 0.00 30 1006.1
20260508193132 17 270 11.3 17.7 0.00 0.00 0.00 31 1006.1
20260508192633 18 225 8.0 16.1 0.00 0.00 0.00 31 1006.1
20260508192135 17 270 6.4 16.1 0.00 0.00 0.00 32 1006.4
20260508191634 17 203 11.3 16.1 0.00 0.00 0.00 32 1006.4
20260508191135 18 248 8.0 16.1 0.00 0.00 0.00 35 1006.4
20260508190636 17 23 6.4 16.1 0.00 0.00 0.00 33 1006.4
20260508190132 17 248 6.4 16.1 0.00 0.00 0.00 35 1006.8
20260508185632 17 203 4.8 16.1 0.00 0.00 0.00 33 1006.8
20260508185132 17 270 9.7 16.1 0.00 0.00 0.00 35 1006.8
20260508184147 16 270 6.4 16.1 0.00 0.00 0.00 39 1006.8
20260508183633 17 113 3.2 16.1 0.00 0.00 0.00 40 1007.1
20260508183132 17 248 6.4 16.1 0.00 0.00 0.00 40 1007.1
20260508182632 17 68 8.0 16.1 0.00 0.00 0.00 41 1007.1
20260508182134 16 248 8.0 16.1 0.00 0.00 0.00 40 1007.1
20260508181633 16 225 0.0 16.1 0.00 0.00 0.00 39 1007.1
20260508181133 16 203 6.4 16.1 0.00 0.00 0.00 40 1007.5
20260508180632 17 270 11.3 16.1 0.00 0.00 0.00 39 1007.5
20260508180133 16 225 4.8 16.1 0.00 0.00 0.00 38 1007.8
20260508175633 17 270 8.0 16.1 0.00 0.00 0.00 36 1007.8
20260508175132 17 23 6.4 16.1 0.00 0.00 0.00 39 1007.8
20260508174633 17 135 11.3 16.1 0.00 0.00 0.00 39 1007.8
20260508174132 17 248 6.4 16.1 0.00 0.00 0.00 38 1007.8
20260508173634 17 293 4.8 16.1 0.00 0.00 0.00 39 1007.8
20260508173132 18 180 6.4 16.1 0.00 0.00 0.00 36 1007.8
20260508172633 16 180 4.8 16.1 0.00 0.00 0.00 36 1007.8
20260508172136 17 293 6.4 16.1 0.00 0.00 0.00 35 1007.8
20260508171634 16 0 6.4 16.1 0.00 0.00 0.00 36 1007.8
20260508171133 16 203 3.2 14.5 0.00 0.00 0.00 35 1008.1
20260508170633 17 248 3.2 14.5 0.00 0.00 0.00 36 1008.1
20260508170132 17 203 3.2 14.5 0.00 0.00 0.00 34 1008.5
20260508165633 17 293 8.0 14.5 0.00 0.00 0.00 35 1008.5
20260508165132 16 248 11.3 11.3 0.00 0.00 0.00 36 1008.5
20260508164634 17 270 4.8 11.3 0.00 0.00 0.00 33 1008.5
20260508164132 17 225 9.7 11.3 0.00 0.00 0.00 38 1008.5
20260508163633 17 113 3.2 9.7 0.00 0.00 0.00 38 1008.8
20260508163137 16 180 3.2 9.7 0.00 0.00 0.00 39 1008.8
20260508162633 16 113 3.2 9.7 0.00 0.00 0.00 36 1008.8
20260508162133 16 225 1.6 9.7 0.00 0.00 0.00 44 1008.8
20260508161635 16 45 0.0 9.7 0.00 0.00 0.00 44 1008.8
20260508161133 16 225 4.8 9.7 0.00 0.00 0.00 43 1008.8
20260508160634 16 270 4.8 9.7 0.00 0.00 0.00 43 1008.8
20260508160132 16 68 3.2 9.7 0.00 0.00 0.00 40 1008.8
20260508155632 17 293 8.0 9.7 0.00 0.00 0.00 41 1008.8
20260508155133 16 293 3.2 9.7 0.00 0.00 0.00 40 1008.8
20260508154633 16 45 4.8 9.7 0.00 0.00 0.00 40 1008.8
20260508154133 16 248 0.0 9.7 0.00 0.00 0.00 44 1008.8
20260508153633 15 270 1.6 9.7 0.00 0.00 0.00 43 1008.8
20260508153133 15 203 3.2 9.7 0.00 0.00 0.00 44 1008.8
20260508152641 14 270 4.8 8.0 0.00 0.00 0.00 45 1008.8
20260508152132 15 248 3.2 8.0 0.00 0.00 0.00 43 1009.1
20260508151635 15 203 6.4 8.0 0.00 0.00 0.00 45 1009.1
20260508151132 13 225 3.2 8.0 0.00 0.00 0.00 46 1009.1
20260508150636 15 68 3.2 8.0 0.00 0.00 0.00 43 1009.1
20260508150141 15 180 3.2 8.0 0.00 0.00 0.00 43 1009.5
20260508145634 13 270 4.8 8.0 0.00 0.00 0.00 45 1009.5
20260508145136 14 180 3.2 8.0 0.00 0.00 0.00 49 1009.5
20260508144635 13 68 1.6 8.0 0.00 0.00 0.00 49 1009.5
20260508144136 13 45 3.2 8.0 0.00 0.00 0.00 51 1009.5
20260508143633 13 135 0.0 8.0 0.00 0.00 0.00 52 1009.5
20260508143134 13 225 3.2 8.0 0.00 0.00 0.00 51 1009.5
20260508142157 13 90 3.2 6.4 0.00 0.00 0.00 53 1009.5
20260508141633 13 45 6.4 6.4 0.00 0.00 0.00 55 1009.5
20260508141136 12 113 1.6 6.4 0.00 0.00 0.00 56 1009.8
20260508140633 13 225 0.0 6.4 0.00 0.00 0.00 59 1009.8
20260508140139 12 68 3.2 6.4 0.00 0.00 0.00 59 1009.8
20260508135634 12 158 1.6 6.4 0.00 0.00 0.00 62 1009.8
20260508135132 12 23 1.6 6.4 0.00 0.00 0.00 64 1009.8
20260508134635 13 90 0.0 6.4 0.00 0.00 0.00 63 1009.8
20260508134136 11 225 3.2 6.4 0.00 0.00 0.00 70 1009.8
20260508133632 12 225 0.0 6.4 0.00 0.00 0.00 67 1010.2
20260508133134 11 0 3.2 6.4 0.00 0.00 0.00 70 1010.2
20260508132634 12 45 1.6 6.4 0.00 0.00 0.00 70 1010.2
20260508132136 11 248 0.0 6.4 0.00 0.00 0.00 73 1010.2
20260508131633 11 225 3.2 6.4 0.00 0.00 0.00 73 1010.2
20260508131133 12 270 0.0 6.4 0.00 0.00 0.00 72 1010.2
20260508130633 11 270 0.0 6.4 0.00 0.00 0.00 76 1010.2
20260508130136 11 113 0.0 6.4 0.00 0.00 0.00 76 1010.2
20260508125634 10 225 0.0 6.4 0.00 0.00 0.00 82 1010.2
20260508125133 10 248 3.2 6.4 0.00 0.00 0.00 80 1010.2
20260508124632 10 68 0.0 6.4 0.00 0.00 0.00 81 1010.2
20260508124134 10 248 3.2 6.4 0.00 0.00 0.00 83 1010.2
20260508123632 9 113 0.0 6.4 0.00 0.00 0.00 86 1010.2
20260508123134 8 203 0.0 6.4 0.00 0.00 0.00 89 1010.2
20260508122632 8 248 3.2 3.2 0.00 0.00 0.00 90 1010.2
20260508122132 7 248 0.0 3.2 0.00 0.00 0.00 92 1010.2
20260508121633 7 270 0.0 3.2 0.00 0.00 0.00 94 1010.2
20260508121135 6 225 0.0 3.2 0.00 0.00 0.00 96 1009.8
20260508120632 6 270 3.2 3.2 0.00 0.00 0.00 97 1009.8
20260508120132 5 225 0.0 3.2 0.00 0.00 0.00 99 1009.5
20260508115632 5 45 0.0 3.2 0.00 0.00 0.00 99 1009.5
20260508115134 4 293 3.2 3.2 0.00 0.00 0.00 99 1009.5
20260508114633 4 270 0.0 0.0 0.00 0.00 0.00 99 1009.5
20260508114132 3 270 0.0 0.0 0.00 0.00 0.00 99 1009.5
20260508113634 3 225 0.0 0.0 0.00 0.00 0.00 99 1009.1
20260508113132 3 270 0.0 0.0 0.00 0.00 0.00 99 1009.1
20260508112632 3 293 0.0 0.0 0.00 0.00 0.00 99 1009.1
20260508112132 3 248 0.0 0.0 0.00 0.00 0.00 99 1009.1
20260508111634 3 225 0.0 0.0 0.00 0.00 0.00 99 1009.1
20260508111132 2 270 0.0 0.0 0.00 0.00 0.00 98 1009.1
20260508110633 2 248 0.0 0.0 0.00 0.00 0.00 98 1009.1
20260508110136 2 113 0.0 3.2 0.00 0.00 0.00 99 1009.1
20260508105634 2 113 0.0 3.2 0.00 0.00 0.00 99 1009.1
20260508104632 3 248 0.0 3.2 0.00 0.00 0.00 99 1009.1
20260508104134 3 248 0.0 3.2 0.00 0.00 0.00 99 1009.1
20260508103633 3 248 0.0 3.2 0.00 0.00 0.00 99 1008.8
20260508103134 3 248 0.0 3.2 0.00 0.00 0.00 99 1008.8
20260508102633 3 248 0.0 3.2 0.00 0.00 0.00 99 1008.8
20260508102132 3 248 0.0 3.2 0.00 0.00 0.00 99 1008.8
20260508101636 3 203 0.0 3.2 0.00 0.00 0.00 99 1008.8
20260508101135 3 248 0.0 3.2 0.00 0.00 0.00 99 1009.1
20260508100632 3 225 0.0 3.2 0.00 0.00 0.00 99 1009.1
20260508100132 3 225 0.0 3.2 0.00 0.00 0.00 99 1009.1
20260508095633 3 225 0.0 3.2 0.00 0.00 0.00 99 1009.1
20260508095132 3 315 0.0 3.2 0.00 0.00 0.00 99 1009.1
20260508094632 3 203 1.6 3.2 0.00 0.00 0.00 99 1009.1
20260508094022 3 203 3.2 3.2 0.00 0.00 0.00 99 1009.1
20260508093133 3 180 0.0 3.2 0.00 0.00 0.00 99 1009.1
20260508092635 3 203 3.2 3.2 0.00 0.00 0.00 99 1009.1
20260508092134 3 270 3.2 3.2 0.00 0.00 0.00 98 1009.1
20260508091632 3 203 0.0 0.0 0.00 0.00 0.00 98 1009.1
20260508091136 3 248 0.0 0.0 0.00 0.00 0.00 97 1009.1
20260508090634 3 270 0.0 0.0 0.00 0.00 0.00 97 1009.1
20260508090141 3 68 0.0 0.0 0.00 0.00 0.00 97 1009.1
20260508085636 3 248 0.0 0.0 0.00 0.00 0.00 98 1009.1
20260508085133 3 248 0.0 0.0 0.00 0.00 0.00 98 1009.1
20260508084634 3 248 0.0 0.0 0.00 0.00 0.00 98 1009.1
20260508084134 3 225 0.0 0.0 0.00 0.00 0.00 98 1009.1
20260508083634 3 248 0.0 0.0 0.00 0.00 0.00 98 1009.1
20260508083135 3 180 0.0 0.0 0.00 0.00 0.00 97 1009.1
20260508082634 3 248 0.0 0.0 0.00 0.00 0.00 97 1009.1
20260508082133 3 225 0.0 0.0 0.00 0.00 0.00 97 1009.1
20260508081633 3 248 0.0 1.6 0.00 0.00 0.00 96 1009.1
20260508081133 4 225 0.0 1.6 0.00 0.00 0.00 96 1009.1
20260508080635 4 248 0.0 1.6 0.00 0.00 0.00 97 1009.1
20260508080133 4 248 0.0 3.2 0.00 0.00 0.00 96 1009.1
20260508075633 4 68 0.0 3.2 0.00 0.00 0.00 96 1009.1
20260508075133 4 270 0.0 3.2 0.00 0.00 0.00 96 1009.1
20260508074633 5 248 0.0 3.2 0.00 0.00 0.00 96 1009.1
20260508074132 5 225 0.0 3.2 0.00 0.00 0.00 96 1009.1
20260508073634 5 248 0.0 3.2 0.00 0.00 0.00 96 1009.1
20260508073132 4 225 0.0 3.2 0.00 0.00 0.00 96 1009.1
20260508072635 4 315 0.0 3.2 0.00 0.00 0.00 96 1009.1
20260508072134 4 203 0.0 3.2 0.00 0.00 0.00 96 1009.5
20260508071632 4 248 0.0 3.2 0.00 0.00 0.00 96 1009.5
20260508071133 4 225 0.0 3.2 0.00 0.00 0.00 96 1009.8
20260508070632 4 248 0.0 3.2 0.00 0.00 0.00 96 1009.8
20260508070134 4 248 0.0 3.2 0.00 0.00 0.00 96 1009.8
20260508065633 4 225 0.0 3.2 0.00 0.00 0.00 96 1009.8
20260508065132 4 180 0.0 3.2 0.00 0.00 0.00 96 1009.8
20260508064633 4 225 0.0 3.2 0.00 0.00 0.00 95 1010.2
20260508064135 4 225 0.0 3.2 0.00 0.00 0.00 95 1010.2
20260508063634 4 270 0.0 3.2 0.00 0.00 0.00 95 1010.2
20260508063135 5 248 0.0 3.2 0.00 0.00 0.00 94 1010.2
20260508062632 5 225 0.0 3.2 0.00 0.00 0.00 94 1010.2
20260508062134 5 248 0.0 3.2 0.00 0.00 0.00 94 1010.2
20260508061632 4 225 0.0 3.2 0.00 0.00 0.00 94 1010.2
20260508061133 4 180 0.0 3.2 0.00 0.00 0.00 94 1010.2
20260508060634 4 225 0.0 3.2 0.00 0.00 0.00 94 1010.2
20260508060133 4 225 0.0 3.2 0.00 0.00 0.00 94 1010.2
20260508055635 4 225 0.0 3.2 0.00 0.00 0.00 94 1010.2
20260508055134 4 225 0.0 3.2 0.00 0.00 0.00 94 1010.2
20260508054632 4 248 0.0 3.2 0.00 0.00 0.00 94 1010.2
20260508054135 5 225 0.0 0.0 0.00 0.00 0.00 94 1010.2
20260508053632 5 248 0.0 0.0 0.00 0.00 0.00 94 1010.2
20260508053134 5 225 0.0 0.0 0.00 0.00 0.00 94 1010.2
20260508052633 5 225 0.0 0.0 0.00 0.00 0.00 94 1010.2
20260508052134 5 270 0.0 0.0 0.00 0.00 0.00 92 1010.2
20260508051634 5 248 0.0 0.0 0.00 0.00 0.00 92 1010.2
20260508051132 5 270 0.0 0.0 0.00 0.00 0.00 93 1009.8
20260508050635 5 225 0.0 0.0 0.00 0.00 0.00 92 1009.8
20260508050132 5 270 0.0 0.0 0.00 0.00 0.00 91 1009.8
20260508045633 5 225 0.0 0.0 0.00 0.00 0.00 90 1009.8
20260508045132 5 203 0.0 0.0 0.00 0.00 0.00 91 1009.8
20260508044632 5 248 0.0 0.0 0.00 0.00 0.00 89 1009.8
20260508044133 5 248 0.0 0.0 0.00 0.00 0.00 90 1009.8
20260508043632 5 203 0.0 0.0 0.00 0.00 0.00 90 1009.5